[[{"header":{"parameterUnit":"m.s-1","parameterCategory":1,"la1":30.2991,"la2":30.254,"lo1":-89.0895,"lo2":-89.0444,"dy":0.0017,"dx":0.0017,"nx":28,"ny":28,"refTime":"2024-02-27T09:00:00:Z","depth":0,"parameterNumber":2,"parameterNumberName":"U-component_of_WINDS"},"data":[0,0,0,0,0,0,0,0,0,0,0,0,0,0,0,0,0,0,0,0,0,0,0,0,0,0,0,0,0,0,0,0,0,0,0,0,0,0,0,0,0,0,0,0,0,0,0,0,0,0,0,0,0,0,0,0,0,0,3.2724,3.2724,0,3.2692,3.2691,3.2691,3.2672,3.2672,3.2672,3.2672,3.2638,3.2637,3.2636,0,0,0,0,0,0,0,0,0,0,0,0,0,3.2771,3.277,3.2724,3.2724,3.2723,3.2692,3.2691,3.2691,3.2672,3.2672,3.2672,3.2672,3.2638,3.2637,3.2636,0,0,0,0,0,0,0,0,0,0,0,0,0,3.2746,3.277,3.2724,3.271,3.2709,3.2692,3.2691,3.2691,3.2672,3.2672,3.2672,3.2672,3.2639,3.2638,3.2636,3.2631,0,0,3.2632,3.2632,0,0,0,0,0,0,0,0,3.2747,3.2744,3.2713,3.2711,3.2709,3.2686,3.2695,3.267,3.2672,3.2686,3.2672,3.2672,3.2654,3.2652,3.2646,3.2629,3.2628,3.2632,3.2632,3.2631,3.2631,0,0,0,0,0,0,0,3.2749,3.2745,3.2711,3.2712,3.271,3.2706,3.2702,3.269,3.2671,3.2685,3.2683,3.268,3.2653,3.2647,3.2645,3.2627,3.2632,3.2631,3.263,3.263,3.2606,3.2606,0,0,0,0,0,0,3.2753,3.2747,3.2712,3.271,3.2728,3.2705,3.2701,3.2693,3.2671,3.2668,3.268,3.2679,3.2649,3.2646,3.2643,3.2636,3.2631,3.263,3.2629,3.2606,3.2606,3.2606,0,0,0,0,0,0,3.2754,3.275,3.2714,3.2728,3.2723,3.2704,3.2696,3.2693,3.2687,3.2667,3.2664,3.2677,3.2649,3.2645,3.2634,3.2635,3.2629,3.2628,3.2606,3.2606,3.2606,3.2621,0,0,0,0,0,0,3.2755,3.275,3.2748,3.2728,3.2722,3.2705,3.2696,3.2692,3.2685,3.2683,3.2664,3.266,3.2649,3.2636,3.2633,3.2633,3.2627,3.2606,3.2606,3.2606,3.2621,3.2622,3.2623,0,0,0,0,0,3.2757,3.2753,3.2748,3.2744,3.2719,3.2705,3.2701,3.2688,3.2685,3.2682,3.267,3.2661,3.2635,3.2635,3.2632,3.2631,3.2605,3.2606,3.2606,3.262,3.2622,3.2623,0,0,0,0,0,0,3.2772,3.275,3.2744,3.2733,3.2721,3.2702,3.2698,3.269,3.2678,3.2677,3.2661,3.2657,3.2648,3.2638,3.2639,3.2625,3.262,3.2619,3.2632,3.2633,3.2634,3.2636,3.2626,0,0,0,0,0,3.2774,3.2765,3.2746,3.2738,3.2733,3.2717,3.271,3.2701,3.2687,3.2682,3.2669,3.2657,3.2646,3.2639,3.2628,3.2619,3.2615,3.2617,3.2619,3.262,3.2619,3.2616,3.2616,3.2607,3.2607,3.2607,0,0,3.2778,3.2765,3.276,3.2741,3.2731,3.2722,3.2712,3.2702,3.2696,3.268,3.267,3.266,3.2645,3.2636,3.2631,3.2628,3.2621,3.262,3.2621,3.262,3.2616,3.2617,3.2618,3.2607,3.2607,3.2607,0,0,3.2781,3.277,3.2763,3.2753,3.2738,3.2728,3.2726,3.2708,3.2701,3.269,3.2679,3.2671,3.2653,3.2643,3.2635,3.2637,3.2629,3.2634,3.264,3.2636,3.2637,3.2638,3.2639,3.264,3.2634,3.2634,3.2634,0,3.2788,3.2774,3.2761,3.2752,3.2745,3.2731,3.2725,3.2716,3.2697,3.2693,3.2689,3.2667,3.2656,3.2645,3.2645,3.264,3.2638,3.2636,3.2638,3.2639,3.2639,3.264,3.264,3.2635,3.2634,3.2634,3.2634,0,3.2784,3.2774,3.2771,3.2754,3.2747,3.2739,3.2725,3.2719,3.2711,3.2701,3.2691,3.2677,3.2664,3.2661,3.2652,3.2649,3.2647,3.2641,3.2635,3.2641,3.2642,3.2642,3.2636,3.2635,3.2635,3.2635,0,0,3.2794,3.2772,3.2771,3.2764,3.2747,3.2739,3.2732,3.2719,3.2714,3.2703,3.2696,3.2682,3.2677,3.2669,3.2659,3.2656,3.266,3.2651,3.265,3.2653,3.2656,3.266,3.2661,3.2654,3.2654,3.2654,3.2657,0,3.2794,3.278,3.2769,3.2759,3.2751,3.2739,3.2733,3.2722,3.2713,3.2705,3.2695,3.2686,3.2679,3.2674,3.2671,3.266,3.266,3.266,3.2649,3.2648,3.2652,3.2661,3.2666,3.2669,3.2657,3.2657,3.2657,0,3.2793,3.2783,3.2773,3.2758,3.2754,3.2749,3.2737,3.2729,3.2717,3.2711,3.2703,3.2694,3.2686,3.2681,3.2671,3.2671,3.2666,3.266,3.266,3.2658,3.2653,3.266,3.267,3.267,3.2658,3.2658,3.2658,0,3.2802,3.2786,3.2778,3.2772,3.2755,3.2752,3.2744,3.2732,3.2726,3.2716,3.2712,3.2701,3.2695,3.2687,3.2676,3.2673,3.2667,3.2661,3.2661,3.2662,3.266,3.266,3.2669,3.2657,3.2657,3.2657,3.2657,0,3.2804,3.2798,3.2782,3.2777,3.2771,3.2758,3.2753,3.2744,3.2734,3.2728,3.2717,3.2711,3.2696,3.2689,3.268,3.2673,3.267,3.2665,3.2663,3.2666,3.2667,3.2662,3.2662,3.2657,3.2657,3.2657,3.2657,0,3.2813,3.2801,3.2792,3.2777,3.2774,3.277,3.2757,3.2752,3.2743,3.2736,3.2733,3.2719,3.271,3.2698,3.2685,3.2679,3.2673,3.267,3.2678,3.2676,3.2678,3.2678,3.2684,3.2684,3.2672,3.2672,3.2672,0,3.2814,3.281,3.2795,3.2791,3.2784,3.2776,3.277,3.2758,3.2752,3.274,3.2737,3.2727,3.2718,3.2705,3.2694,3.2684,3.268,3.2683,3.2678,3.2682,3.268,3.2681,3.268,3.2684,3.2684,3.2684,3.2684,0,3.2819,3.2814,3.2806,3.2797,3.279,3.2782,3.2773,3.277,3.2756,3.2751,3.2742,3.2735,3.2723,3.2714,3.2703,3.2695,3.2688,3.2686,3.2686,3.2689,3.2694,3.2691,3.2681,3.2686,3.2686,3.2685,3.2685,3.2685,3.2824,3.2821,3.281,3.2802,3.2794,3.2787,3.2782,3.2773,3.2766,3.2755,3.2749,3.274,3.273,3.2715,3.2708,3.2701,3.2698,3.2698,3.2698,3.2698,3.2699,3.2695,3.2699,3.2699,3.2699,3.2699,3.2699,0,3.2829,3.2822,3.2815,3.2804,3.2798,3.2792,3.2782,3.2778,3.277,3.2762,3.2754,3.2745,3.2736,3.2725,3.2716,3.2713,3.2709,3.2711,3.2711,3.2709,3.2702,3.2703,3.2714,3.2714,3.2714,3.2714,3.2714,3.2714,3.283,3.2824,3.2818,3.2808,3.2801,3.2794,3.2789,3.2782,3.2775,3.2765,3.2758,3.2752,3.2742,3.2732,3.2724,3.2721,3.2719,3.2721,3.2717,3.2711,3.2709,3.2708,3.2709,3.2721,3.2721,3.2725,3.2725,3.2725]},{"header":{"parameterUnit":"m.s-1","parameterCategory":1,"la1":30.2991,"la2":30.254,"lo1":-89.0895,"lo2":-89.0444,"dy":0.0017,"dx":0.0017,"nx":28,"ny":28,"refTime":"2024-02-27T09:00:00:Z","depth":0,"parameterNumber":3,"parameterNumberName":"V-component_of_WINDS"},"data":[0,0,0,0,0,0,0,0,0,0,0,0,0,0,0,0,0,0,0,0,0,0,0,0,0,0,0,0,0,0,0,0,0,0,0,0,0,0,0,0,0,0,0,0,0,0,0,0,0,0,0,0,0,0,0,0,0,0,3.7047,3.7047,0,3.7079,3.7079,3.7079,3.7061,3.706,3.7059,3.7059,3.7088,3.7089,3.7091,0,0,0,0,0,0,0,0,0,0,0,0,0,3.6968,3.6969,3.7047,3.7047,3.7048,3.7079,3.7079,3.7079,3.7061,3.706,3.7059,3.7058,3.7087,3.7089,3.7091,0,0,0,0,0,0,0,0,0,0,0,0,0,3.7001,3.697,3.7047,3.7043,3.7043,3.7078,3.7079,3.708,3.7062,3.706,3.7059,3.7058,3.7087,3.7089,3.7091,3.7132,0,0,3.7099,3.71,0,0,0,0,0,0,0,0,3.6999,3.7004,3.7043,3.7043,3.7043,3.7065,3.7062,3.7097,3.7062,3.7054,3.7059,3.7057,3.7081,3.7084,3.7092,3.7134,3.7135,3.7099,3.71,3.7101,3.7102,0,0,0,0,0,0,0,3.6997,3.7002,3.7059,3.7043,3.7044,3.7038,3.7041,3.7068,3.7074,3.7055,3.7054,3.7058,3.7081,3.709,3.7093,3.7135,3.7099,3.7101,3.7102,3.7103,3.7212,3.7213,0,0,0,0,0,0,3.6995,3.7001,3.7058,3.706,3.7017,3.704,3.7044,3.7059,3.7074,3.7075,3.7059,3.7057,3.7087,3.709,3.7094,3.7143,3.7101,3.7103,3.7105,3.721,3.7212,3.7214,0,0,0,0,0,0,3.6994,3.7001,3.7057,3.703,3.7037,3.7043,3.706,3.706,3.707,3.7077,3.7078,3.7068,3.7086,3.709,3.7123,3.7144,3.7105,3.7107,3.7209,3.7211,3.7213,3.7243,0,0,0,0,0,0,3.6991,3.7,3.7017,3.7031,3.7039,3.7087,3.7061,3.7062,3.7074,3.7072,3.7086,3.7087,3.7085,3.712,3.7126,3.7147,3.7109,3.7207,3.721,3.7212,3.724,3.7246,3.7251,0,0,0,0,0,3.6989,3.7023,3.7018,3.7025,3.7059,3.7088,3.7093,3.7091,3.7076,3.7092,3.7097,3.7086,3.7141,3.7123,3.713,3.7152,3.7206,3.7209,3.7212,3.7238,3.7245,3.725,0,0,0,0,0,0,3.701,3.7025,3.7019,3.7059,3.7073,3.7085,3.7106,3.7098,3.7116,3.7113,3.7109,3.7112,3.7147,3.7152,3.7132,3.7192,3.7171,3.7175,3.7188,3.7195,3.72,3.7198,3.7111,0,0,0,0,0,3.7019,3.7043,3.7054,3.7088,3.7095,3.7099,3.7112,3.711,3.7123,3.7128,3.7135,3.7148,3.7168,3.7181,3.72,3.724,3.7243,3.7259,3.7264,3.7268,3.7273,3.7295,3.7302,3.7225,3.7225,3.7224,0,0,3.7039,3.705,3.7065,3.7093,3.7103,3.7126,3.7104,3.713,3.7147,3.7132,3.7164,3.7169,3.7183,3.722,3.7236,3.7226,3.7294,3.7272,3.7276,3.7278,3.7299,3.7306,3.7313,3.7227,3.7226,3.7226,0,0,3.7087,3.7097,3.7128,3.7139,3.7155,3.7157,3.7165,3.7178,3.7182,3.7214,3.7203,3.7223,3.7257,3.7268,3.7278,3.7329,3.732,3.7335,3.7364,3.7385,3.7391,3.7397,3.7416,3.7422,3.7339,3.734,3.734,0,3.7109,3.7145,3.7143,3.717,3.7183,3.7171,3.7201,3.7212,3.7233,3.7241,3.7229,3.7272,3.7281,3.732,3.7333,3.7341,3.7349,3.7334,3.7391,3.7396,3.7401,3.7419,3.7426,3.7341,3.7341,3.7341,3.7341,0,3.7171,3.7196,3.7218,3.7241,3.7256,3.7284,3.7286,3.7301,3.7297,3.73,3.7333,3.7342,3.7363,3.7372,3.7368,3.7411,3.7404,3.7391,3.7369,3.741,3.7427,3.7434,3.7344,3.7343,3.7343,3.7342,0,0,3.7234,3.7256,3.7264,3.7274,3.7291,3.731,3.7337,3.7359,3.7372,3.7386,3.7409,3.7439,3.7427,3.7438,3.7435,3.7454,3.7495,3.7439,3.7439,3.745,3.7543,3.7554,3.7562,3.7489,3.749,3.7491,3.7542,0,3.7284,3.7333,3.7333,3.7378,3.7401,3.7391,3.7414,3.7427,3.743,3.745,3.7453,3.7474,3.7457,3.7464,3.7482,3.7486,3.7514,3.7482,3.7509,3.751,3.7508,3.757,3.7581,3.763,3.7549,3.755,3.7551,0,3.7349,3.7367,3.7416,3.743,3.744,3.7461,3.7481,3.75,3.7513,3.7514,3.7527,3.7521,3.7548,3.7525,3.7561,3.754,3.7551,3.7554,3.7556,3.7559,3.7534,3.7576,3.7645,3.7652,3.7561,3.756,3.756,0,3.7391,3.7427,3.7461,3.747,3.7488,3.7503,3.7511,3.7523,3.7536,3.7553,3.7561,3.758,3.7591,3.7605,3.7604,3.7587,3.7641,3.7618,3.7643,3.7643,3.7656,3.7655,3.7728,3.7661,3.7661,3.7661,3.7661,0,3.7447,3.7477,3.7481,3.7502,3.7535,3.7533,3.7565,3.7571,3.7583,3.7604,3.7594,3.7614,3.7611,3.763,3.7629,3.766,3.7665,3.7666,3.7666,3.7668,3.7668,3.7676,3.7673,3.7663,3.7662,3.7662,3.7662,0,3.75,3.7504,3.754,3.7554,3.7558,3.7582,3.7593,3.7612,3.7615,3.7642,3.7648,3.7652,3.7675,3.7675,3.77,3.7699,3.7737,3.7732,3.7733,3.7733,3.7758,3.7756,3.7839,3.785,3.7775,3.7776,3.7777,0,3.7537,3.756,3.7576,3.7591,3.76,3.7622,3.7636,3.7635,3.7649,3.7666,3.7684,3.7705,3.7723,3.7759,3.7764,3.7783,3.7779,3.7807,3.7782,3.7783,3.7781,3.778,3.7782,3.7812,3.7813,3.7814,3.7814,0,3.7601,3.7602,3.7623,3.7644,3.7661,3.7678,3.7693,3.7705,3.7705,3.7721,3.7745,3.7759,3.7785,3.7807,3.7825,3.7832,3.7823,3.7822,3.7829,3.7832,3.7832,3.7833,3.7748,3.782,3.782,3.7819,3.7819,3.7819,3.7647,3.7668,3.7683,3.7707,3.7718,3.7733,3.7752,3.7758,3.7778,3.78,3.7798,3.7824,3.7836,3.7861,3.7869,3.7889,3.7879,3.7889,3.7892,3.7894,3.7898,3.7828,3.7892,3.7892,3.7891,3.7891,3.7891,0,3.7712,3.7722,3.7743,3.7766,3.7784,3.7775,3.7792,3.7807,3.7831,3.7844,3.7862,3.7889,3.791,3.7916,3.7936,3.7951,3.7948,3.7956,3.7956,3.7958,3.7905,3.7897,3.7959,3.7959,3.7959,3.7959,3.7959,3.7959,3.7748,3.7783,3.7785,3.7825,3.7833,3.7861,3.7871,3.7884,3.7894,3.7926,3.7944,3.7948,3.7958,3.7979,3.7998,3.7999,3.8007,3.8018,3.8017,3.7968,3.7961,3.7955,3.7948,3.8019,3.8019,3.8069,3.8069,3.8069]}]]